| time (UTC) | temp C | wind direction | speed KPH | gust KPH | rain 1hr cm | rain 24hr cm | rain mn cm | humidity % | barometer mb |
| 20260502161510 | 23 | 196 | 8.0 | 24.1 | 0.00 | 0.00 | 0.00 | 50 | 1015.8 |
| 20260502151511 | 25 | 233 | 8.0 | 17.7 | 0.00 | 0.00 | 0.00 | 47 | 1016.3 |
| 20260502123010 | 24 | 251 | 9.7 | 25.7 | 0.00 | 0.00 | 0.00 | 48 | 1018.2 |
| 20260502121511 | 23 | 202 | 9.7 | 27.4 | 0.00 | 0.00 | 0.00 | 48 | 1018.1 |
| 20260502114510 | 23 | 247 | 6.4 | 17.7 | 0.00 | 0.00 | 0.00 | 47 | 1018.5 |
| 20260502113009 | 24 | 263 | 8.0 | 24.1 | 0.00 | 0.00 | 0.00 | 46 | 1018.7 |
| 20260502111510 | 22 | 259 | 6.4 | 17.7 | 0.00 | 0.00 | 0.00 | 47 | 1018.7 |
| 20260502110010 | 22 | 255 | 8.0 | 20.9 | 0.00 | 0.00 | 0.00 | 48 | 1018.8 |
| 20260502104511 | 23 | 238 | 8.0 | 22.5 | 0.00 | 0.00 | 0.00 | 48 | 1019.0 |
| 20260502101509 | 22 | 258 | 6.4 | 17.7 | 0.00 | 0.00 | 0.00 | 44 | 1019.0 |
| 20260502091509 | 21 | 222 | 9.7 | 22.5 | 0.00 | 0.00 | 0.00 | 44 | 1019.4 |
| 20260502070041 | 18 | 146 | 4.8 | 9.7 | 0.00 | 0.00 | 0.00 | 46 | 1019.3 |
| 20260502063041 | 16 | 206 | 6.4 | 14.5 | 0.00 | 0.00 | 0.00 | 49 | 1019.6 |
| 20260502061543 | 16 | 162 | 3.2 | 11.3 | 0.00 | 0.00 | 0.00 | 50 | 1019.7 |
| 20260502060041 | 16 | 147 | 3.2 | 11.3 | 0.00 | 0.00 | 0.00 | 51 | 1019.6 |
| 20260502054542 | 15 | 132 | 3.2 | 6.4 | 0.00 | 0.00 | 0.00 | 53 | 1019.8 |
| 20260502053042 | 14 | 148 | 1.6 | 6.4 | 0.00 | 0.00 | 0.00 | 55 | 1019.7 |
| 20260502051544 | 13 | 109 | 1.6 | 3.2 | 0.00 | 0.00 | 0.00 | 58 | 1019.7 |
| 20260502050041 | 12 | 91 | 1.6 | 3.2 | 0.00 | 0.00 | 0.00 | 60 | 1019.7 |
| 20260502043042 | 11 | 125 | 3.2 | 6.4 | 0.00 | 0.00 | 0.00 | 63 | 1019.8 |
| 20260502041542 | 11 | 105 | 1.6 | 6.4 | 0.00 | 0.00 | 0.00 | 63 | 1020.0 |
| 20260502034543 | 11 | 107 | 1.6 | 3.2 | 0.00 | 0.00 | 0.00 | 63 | 1020.2 |
| 20260502033041 | 11 | 131 | 1.6 | 3.2 | 0.00 | 0.00 | 0.00 | 62 | 1020.3 |
| 20260502031542 | 12 | 106 | 1.6 | 3.2 | 0.00 | 0.00 | 0.00 | 61 | 1020.2 |
| 20260502024544 | 12 | 125 | 1.6 | 6.4 | 0.00 | 0.00 | 0.00 | 59 | 1020.4 |
| 20260502023043 | 12 | 108 | 1.6 | 6.4 | 0.00 | 0.00 | 0.00 | 59 | 1020.4 |
| 20260502021542 | 12 | 114 | 1.6 | 6.4 | 0.00 | 0.00 | 0.00 | 58 | 1020.7 |
| 20260502020042 | 12 | 106 | 0.0 | 3.2 | 0.00 | 0.00 | 0.00 | 57 | 1020.7 |
| 20260502014544 | 13 | 115 | 1.6 | 3.2 | 0.00 | 0.00 | 0.00 | 56 | 1020.9 |
| 20260502013041 | 13 | 123 | 1.6 | 6.4 | 0.00 | 0.00 | 0.00 | 55 | 1021.0 |
| 20260502011543 | 13 | 123 | 3.2 | 6.4 | 0.00 | 0.00 | 0.00 | 53 | 1021.1 |
| 20260502010042 | 14 | 114 | 3.2 | 6.4 | 0.00 | 0.00 | 0.00 | 52 | 1021.3 |
| 20260502004541 | 14 | 126 | 4.8 | 9.7 | 0.00 | 0.00 | 0.00 | 51 | 1021.3 |
| 20260502003042 | 15 | 120 | 4.8 | 9.7 | 0.00 | 0.00 | 0.00 | 50 | 1021.5 |
| 20260502001542 | 15 | 131 | 4.8 | 11.3 | 0.00 | 0.00 | 0.00 | 49 | 1021.5 |
| 20260502000042 | 15 | 109 | 3.2 | 6.4 | 0.00 | 0.00 | 0.00 | 49 | 1021.8 |
| 20260501234543 | 15 | 125 | 3.2 | 11.3 | 0.00 | 0.00 | 0.00 | 49 | 1022.0 |
| 20260501233042 | 15 | 129 | 3.2 | 6.4 | 0.00 | 0.00 | 0.00 | 48 | 1021.9 |
| 20260501231541 | 15 | 120 | 4.8 | 6.4 | 0.00 | 0.00 | 0.00 | 47 | 1021.9 |
| 20260501230042 | 16 | 121 | 3.2 | 6.4 | 0.00 | 0.00 | 0.00 | 46 | 1022.1 |
| 20260501224541 | 16 | 121 | 3.2 | 6.4 | 0.00 | 0.00 | 0.00 | 46 | 1022.0 |
| 20260501223041 | 16 | 116 | 3.2 | 6.4 | 0.00 | 0.00 | 0.00 | 46 | 1022.1 |
| 20260501221541 | 16 | 124 | 3.2 | 6.4 | 0.00 | 0.00 | 0.00 | 44 | 1022.5 |
| 20260501220041 | 16 | 129 | 3.2 | 6.4 | 0.00 | 0.00 | 0.00 | 44 | 1022.2 |
| 20260501214542 | 17 | 113 | 3.2 | 6.4 | 0.00 | 0.00 | 0.00 | 43 | 1022.3 |
| 20260501213041 | 17 | 124 | 3.2 | 6.4 | 0.00 | 0.00 | 0.00 | 42 | 1022.1 |
| 20260501211542 | 17 | 117 | 3.2 | 6.4 | 0.00 | 0.00 | 0.00 | 41 | 1022.3 |
| 20260501210042 | 18 | 140 | 1.6 | 6.4 | 0.00 | 0.00 | 0.00 | 39 | 1022.4 |
| 20260501203041 | 18 | 150 | 1.6 | 6.4 | 0.00 | 0.00 | 0.00 | 39 | 1022.7 |
| 20260501201541 | 18 | 135 | 0.0 | 3.2 | 0.00 | 0.00 | 0.00 | 39 | 1022.6 |
| 20260501194541 | 20 | 150 | 1.6 | 6.4 | 0.00 | 0.00 | 0.00 | 37 | 1022.6 |
| 20260501193041 | 20 | 190 | 3.2 | 6.4 | 0.00 | 0.00 | 0.00 | 36 | 1022.6 |
| 20260501191541 | 20 | 177 | 3.2 | 9.7 | 0.00 | 0.00 | 0.00 | 34 | 1022.4 |
| 20260501190041 | 21 | 201 | 1.6 | 6.4 | 0.00 | 0.00 | 0.00 | 34 | 1022.6 |
| 20260501183041 | 22 | 192 | 4.8 | 9.7 | 0.00 | 0.00 | 0.00 | 31 | 1022.4 |